This demonstration page uses our WeatherBlox Daily Observations layout. Learn more.

Left ArrowRight Arrow

Hourly Observations for February 27, 2022

Temp ( °F °C ) Dew Point ( °F °C ) Humidity (%) Winds ( mph kmh ) Pressure ( in mb ) Visibility ( mi km ) Precip ( " mm )
12:56 am 00:56 Clear 19 -7.2 4 -15.6 51 51 NW 8 13 30.39 1029 10 16 0.00 0.00
1:56 am 01:56 Clear 15 -9.4 2 -16.7 56 56 Calm 30.40 1030 10 16 0.00 0.00
2:56 am 02:56 Clear 17 -8.3 3 -16.1 54 54 Calm 30.39 1029 10 16 0.00 0.00
3:56 am 03:56 Clear 15 -9.4 3 -16.1 59 59 W 6 9 30.39 1029 10 16 0.00 0.00
4:56 am 04:56 Clear 19 -7.2 8 -13.3 62 62 WNW 7 11 30.38 1029 10 16 0.00 0.00
5:56 am 05:56 Clear 20 -6.7 9 -12.8 62 62 WNW 6 9 30.39 1029 10 16 0.00 0.00
6:56 am 06:56 Clear 16 -8.9 7 -13.9 67 67 WSW 8 13 30.39 1029 10 16 0.00 0.00
7:56 am 07:56 Sunny 22 -5.6 11 -11.7 63 63 W 9 15 30.38 1029 10 16 0.00 0.00
8:56 am 08:56 Sunny 28 -2.2 12 -11.1 51 51 W 7 11 30.39 1029 10 16 0.00 0.00
9:56 am 09:56 Sunny 37 2.8 10 -12.2 33 33 W 13 20 30.37 1029 10 16 0.00 0.00
10:56 am 10:56 Sunny 43 6.1 10 -12.2 26 26 W 18 30 30.35 1028 10 16 0.00 0.00
11:56 am 11:56 Sunny 49 9.4 9 -12.8 20 20 W 14 22 30.31 1027 10 16 0.00 0.00
12:56 pm 12:56 Sunny 53 11.7 7 -13.9 15 15 W 15 24 30.28 1025 10 16 0.00 0.00
1:56 pm 13:56 Sunny 55 12.8 7 -13.9 14 14 W 13 20 30.26 1025 10 16 0.00 0.00
2:56 pm 14:56 Sunny 57 13.9 5 -15 12 12 WSW 17 28 30.23 1024 10 16 0.00 0.00
3:56 pm 15:56 Sunny 59 15 4 -15.6 11 11 WSW 12 19 30.21 1023 10 16 0.00 0.00
4:56 pm 16:56 Sunny 59 15 3 -16.1 10 10 W 12 19 30.19 1022 10 16 0.00 0.00
5:56 pm 17:56 Sunny 56 13.3 4 -15.6 12 12 WSW 7 11 30.18 1022 10 16 0.00 0.00
6:56 pm 18:56 Clear 48 8.9 4 -15.6 16 16 SW 8 13 30.19 1022 10 16 0.00 0.00
7:56 pm 19:56 Clear 44 6.7 3 -16.1 18 18 SW 10 17 30.20 1023 10 16 0.00 0.00
8:56 pm 20:56 Clear 41 5 4 -15.6 21 21 SW 8 13 30.19 1022 10 16 0.00 0.00
9:56 pm 21:56 Clear 40 4.4 3 -16.1 21 21 WSW 7 11 30.19 1023 10 16 0.00 0.00
10:56 pm 22:56 Clear 33 0.6 3 -16.1 28 28 W 6 9 30.20 1023 10 16 0.00 0.00
11:56 pm 23:56 Clear 31 -0.6 5 -15 33 33 WNW 6 9 30.19 1022 10 16 0.00 0.00

Powered by AerisWeather